Change the Weather History Date:

Thursday, April 10, 2014

  Actual Average (KMKC) Record (KMKC)
Temperature  
Mean Temperature 62 °F -  
Max Temperature 69 °F 62 °F 87 °F (2011)
Min Temperature 53 °F 43 °F 32 °F (1997)
Degree Days  
Heating Degree Days 4    
Growing Degree Days 12 (Base 50)    
Moisture  
Dew Point 36 °F    
Average Humidity 39    
Maximum Humidity 50    
Minimum Humidity 30    
Precipitation  
Precipitation 0.00 in - - ()
Sea Level Pressure  
Sea Level Pressure 29.85 in    
Wind  
Wind Speed 12 mph (North)    
Max Wind Speed 16 mph    
Max Gust Speed 26 mph    
Visibility 10 miles    
Events      
Averages and records for this station are not official NWS values.
T = Trace of Precipitation, MM = Missing Value Source: NWS Daily Summary

Daily Weather History Graph

Daily Weather History Graph

Search for Another Location

Airport or City:

Trip Planner

Search our weather history database for the weather conditions in past years. The results will help you decide how hot, cold, wet, or windy it might be!

Date:

Astronomy

Apr. 10, 2014 Rise Set
Actual Time 6:48 AM CDT 7:49 PM CDT
Civil Twilight 6:20 AM CDT 8:17 PM CDT
Nautical Twilight 5:48 AM CDT 8:49 PM CDT
Astronomical Twilight 5:14 AM CDT 9:23 PM CDT
Moon 3:36 PM CDT (4/10) 4:09 AM CDT (4/10)
Length of Visible Light 13h 56m
Length of Day
13h 01m
Waxing Gibbous, 80% of the Moon is Illuminated
Apr 10
Waxing Gibbous
Apr 15
Full
Apr 22
Last Quarter
Apr 29
New
May 6
First Quarter

Hourly Weather History & Observations

Time (CDT) Temp. Dew Point Humidity Pressure Visibility Wind Dir Wind Speed Gust Speed Precip Events Conditions
12:53 AM 62.1 °F 37.9 °F 41% 29.76 in 10.0 mi SSW 11.5 mph - N/A   Clear
1:53 AM 63.0 °F 39.0 °F 41% 29.75 in 10.0 mi SSW 13.8 mph 21.9 mph N/A   Clear
2:53 AM 63.0 °F 39.9 °F 43% 29.73 in 10.0 mi SSW 15.0 mph 23.0 mph N/A   Clear
3:53 AM 61.0 °F 41.0 °F 48% 29.72 in 10.0 mi SSW 12.7 mph - N/A   Clear
4:53 AM 62.1 °F 42.1 °F 48% 29.70 in 10.0 mi SSW 13.8 mph 23.0 mph N/A   Clear
5:53 AM 62.1 °F 42.1 °F 48% 29.69 in 10.0 mi SSW 16.1 mph 26.5 mph N/A   Clear
6:53 AM 61.0 °F 42.1 °F 50% 29.74 in 10.0 mi West 9.2 mph 25.3 mph N/A   Clear
9:53 AM 64.0 °F 44.1 °F 48% 29.78 in 10.0 mi SW 16.1 mph 23.0 mph N/A   Clear
10:53 AM 66.9 °F 45.0 °F 45% 29.80 in 10.0 mi West 6.9 mph - N/A   Clear
11:53 AM 68.0 °F 43.0 °F 40% 29.81 in 10.0 mi NNW 9.2 mph - N/A   Clear
12:53 PM 68.0 °F 44.1 °F 42% 29.84 in 10.0 mi North 11.5 mph - N/A   Clear
1:53 PM 66.9 °F 41.0 °F 39% 29.87 in 10.0 mi NNE 13.8 mph - N/A   Clear
2:53 PM 66.9 °F 37.9 °F 34% 29.89 in 10.0 mi NE 12.7 mph - N/A   Clear
3:53 PM 64.9 °F 36.0 °F 34% 29.88 in 10.0 mi North 16.1 mph - N/A   Clear
4:53 PM 63.0 °F 34.0 °F 34% 29.90 in 10.0 mi NNE 16.1 mph - N/A   Clear
5:53 PM 64.0 °F 33.1 °F 31% 29.90 in 10.0 mi NNE 15.0 mph - N/A   Clear
6:53 PM 62.1 °F 30.0 °F 30% 29.93 in 10.0 mi NNE 10.4 mph - N/A   Clear
7:53 PM 57.0 °F 28.0 °F 33% 29.96 in 10.0 mi NNE 8.1 mph - N/A   Clear
8:53 PM 55.0 °F 26.1 °F 33% 29.97 in 10.0 mi North 5.8 mph - N/A   Clear
9:53 PM 55.9 °F 26.1 °F 32% 29.99 in 10.0 mi NNE 4.6 mph - N/A   Clear
10:53 PM 55.0 °F 25.0 °F 31% 29.99 in 10.0 mi ENE 4.6 mph - N/A   Clear
11:53 PM 53.1 °F 25.0 °F 34% 30.00 in 10.0 mi NE 4.6 mph - N/A   Clear